This demonstration page uses our WeatherBlox Daily Observations layout. Learn more.

Left ArrowRight Arrow

Hourly Observations for June 11, 2018

Temp ( °F °C ) Dew Point ( °F °C ) Humidity (%) Winds ( mph kmh ) Pressure ( in mb ) Visibility ( mi km ) Precip ( " mm )
12:54 am 00:54 Clear 80 26.7 70 21.1 71 71 SSE 10 17 29.60 1002 10 16 0.00 0.00
1:54 am 01:54 Clear 77 25 70 21.1 79 79 S 8 13 29.59 1002 10 16 0.00 0.00
2:54 am 02:54 Clear 80 26.7 71 21.7 74 74 ESE 10 17 29.62 1003 10 16 0.00 0.00
3:54 am 03:54 Mostly Clear 78 25.6 71 21.7 79 79 SSE 10 17 29.62 1003 10 16 0.00 0.00
4:54 am 04:54 Partly Cloudy 77 25 71 21.7 82 82 ESE 14 22 29.63 1004 10 16 0.00 0.00
5:54 am 05:54 Partly Cloudy 77 25 70 21.1 79 79 ESE 18 30 29.65 1004 10 16 0.00 0.00
6:43 am 06:43 Partly Cloudy with Thunderstorms 73 22.8 66 18.9 79 79 ESE 15 24 29.65 1004 6 10 0.01 0.25
6:54 am 06:54 Partly Cloudy with Thunderstorms 72 22.2 67 19.4 84 84 ESE 15 24 29.68 1005 10 16 0.02 0.51
7:12 am 07:12 Sunny with Nearby Thunderstorms 73 22.8 66 18.9 79 79 ESE 16 26 29.65 1004 10 16 0.00 0.00
7:20 am 07:20 Sunny 73 22.8 66 18.9 79 79 ESE 15 24 29.65 1004 10 16 0.00 0.00
7:54 am 07:54 Sunny 73 22.8 64 17.8 74 74 ESE 14 22 29.68 1005 10 16 0.00 0.00
8:38 am 08:38 Mostly Cloudy with Thunderstorms 75 23.9 64 17.8 69 69 SSE 15 24 29.68 1005 10 16 0.00 0.03
8:54 am 08:54 Mostly Cloudy with Thunderstorms 75 23.9 64 17.8 69 69 SSE 7 11 29.70 1006 10 16 0.00 0.03
9:07 am 09:07 Partly Cloudy with Nearby Thunderstorms 76 24.4 64 17.8 67 67 SE 15 24 29.68 1005 10 16 0.00 0.00
9:18 am 09:18 Mostly Sunny 78 25.6 65 18.3 64 64 SE 15 24 29.65 1004 10 16 0.00 0.00
9:54 am 09:54 Sunny 79 26.1 66 18.9 65 65 SE 15 24 29.68 1005 10 16 0.00 0.03
10:54 am 10:54 Sunny 83 28.3 68 20 61 61 SE 24 39 29.68 1005 10 16 0.00 0.00
11:54 am 11:54 Sunny 84 28.9 68 20 59 59 SE 22 35 29.68 1005 10 16 0.00 0.00
12:54 pm 12:54 Sunny 86 30 71 21.7 61 61 S 15 24 29.67 1005 10 16 0.00 0.00
1:54 pm 13:54 Sunny 89 31.7 73 22.8 59 59 SSE 14 22 29.65 1004 10 16 0.00 0.00
2:54 pm 14:54 Partly Cloudy 92 33.3 72 22.2 52 52 S 10 17 29.65 1004 10 16 0.00 0.00
3:54 pm 15:54 Mostly Cloudy 94 34.4 71 21.7 48 48 SW 9 15 29.65 1004 10 16 0.00 0.00
4:54 pm 16:54 Partly Cloudy 94 34.4 70 21.1 46 46 SSW 10 17 29.62 1003 10 16 0.00 0.00
5:44 pm 17:44 Mostly Cloudy 90 32.2 73 22.8 58 58 NW 21 33 29.56 1001 10 16 0.00 0.00
5:52 pm 17:52 Mostly Cloudy 90 32 73 23 59 59 NW 21 33 29.56 1001 10 16 0.00 0.00
5:54 pm 17:54 Mostly Cloudy 90 32.2 73 22.8 58 58 WNW 18 30 29.60 1002 10 16 0.00 0.00
6:01 pm 18:01 Partly Cloudy with Nearby Thunderstorms 90 32.2 73 22.8 58 58 NW 22 35 29.56 1001 10 16 0.00 0.00
6:54 pm 18:54 Sunny with Nearby Thunderstorms 83 28.3 70 21.1 65 65 N 29 46 29.62 1003 10 16 0.00 0.00
7:22 pm 19:22 Mostly Cloudy 80 26.7 69 20.6 69 69 NE 23 37 29.68 1005 10 16 0.00 0.00
7:54 pm 19:54 Cloudy 77 25 69 20.6 77 77 NNE 14 22 29.71 1006 10 16 0.00 0.00
8:09 pm 20:09 Partly Cloudy 78 25.6 68 20 71 71 N 14 22 29.68 1005 10 16 0.00 0.00
8:32 pm 20:32 Mostly Cloudy 77 25 68 20 74 74 NNE 16 26 29.71 1006 10 16 0.00 0.00
8:54 pm 20:54 Partly Cloudy 75 23.9 68 20 79 79 NNE 14 22 29.73 1007 10 16 0.00 0.00
9:54 pm 21:54 Clear 73 22.8 66 18.9 79 79 NE 7 11 29.77 1008 10 16 0.00 0.00
10:54 pm 22:54 Partly Cloudy 71 21.7 61 16.1 71 71 Calm 29.79 1009 10 16 0.00 0.00
11:07 pm 23:07 Mostly Cloudy 71 21.7 62 16.7 73 73 N 5 7 29.77 1008 10 16 0.00 0.00
11:23 pm 23:23 Partly Cloudy 70 21.1 62 16.7 76 76 NNE 3 6 29.77 1008 10 16 0.00 0.00
11:54 pm 23:54 Mostly Clear 70 21.1 62 16.7 76 76 SSE 5 7 29.81 1010 10 16 0.00 0.00

Powered by AerisWeather